• în Republica Moldova
  • Lista ţărilor
  • Pe 7 zile
  • Temperatura apei
  • Hartă satelitară
  • Meteo pe hartă
  • Widget-uri
  • user-avatar
    Intrare

    Meteo pe oră la Albany

    Astăzi, 21 Februarie, Marţi

    Timp Temperatura Precipitaţii Vânt Presiune Umiditate
    00:00 +16°C° 0 mm 5 m/s 752 mmHg 74%
    01:00 +16°C° 0 mm 6 m/s 752 mmHg 74%
    02:00 +15°C° 0 mm 6 m/s 751 mmHg 75%
    03:00 +15°C° 0,7 mm 7 m/s 751 mmHg 77%
    04:00 +15°C° 0,7 mm 8 m/s 751 mmHg 79%
    05:00 +13°C° 0,7 mm 8 m/s 751 mmHg 81%
    06:00 +13°C° 0,5 mm 9 m/s 752 mmHg 76%
    07:00 +13°C° 0,5 mm 9 m/s 752 mmHg 71%
    08:00 +15°C° 0,5 mm 9 m/s 753 mmHg 67%
    09:00 +15°C° 0,2 mm 9 m/s 753 mmHg 61%
    10:00 +16°C° 0,2 mm 9 m/s 753 mmHg 55%
    11:00 +17°C° 0,2 mm 9 m/s 754 mmHg 49%
    12:00 +17°C° 0,1 mm 10 m/s 754 mmHg 49%
    13:00 +18°C° 0,1 mm 10 m/s 754 mmHg 48%
    14:00 +18°C° 0,1 mm 10 m/s 754 mmHg 48%
    15:00 +18°C° 0,1 mm 10 m/s 755 mmHg 50%
    16:00 +17°C° 0,1 mm 10 m/s 755 mmHg 53%
    17:00 +17°C° 0,1 mm 9 m/s 756 mmHg 55%
    18:00 +17°C° 0 mm 9 m/s 756 mmHg 59%
    19:00 +16°C° 0 mm 8 m/s 757 mmHg 62%
    20:00 +15°C° 0 mm 7 m/s 757 mmHg 65%
    21:00 +15°C° 0 mm 6 m/s 758 mmHg 67%
    22:00 +15°C° 0 mm 6 m/s 758 mmHg 69%
    23:00 +15°C° 0 mm 6 m/s 759 mmHg 71%

    Mâine, 22 Februarie, Miercuri

    Timp Temperatura Precipitaţii Vânt Presiune Umiditate
    00:00 +15°C° 0 mm 5 m/s 759 mmHg 72%
    01:00 +15°C° 0 mm 5 m/s 759 mmHg 73%
    02:00 +15°C° 0 mm 5 m/s 759 mmHg 73%
    03:00 +15°C° 0,1 mm 5 m/s 759 mmHg 76%
    04:00 +15°C° 0,1 mm 5 m/s 759 mmHg 78%
    05:00 +15°C° 0,1 mm 5 m/s 759 mmHg 80%
    06:00 +15°C° 0 mm 4 m/s 759 mmHg 78%
    07:00 +17°C° 0 mm 4 m/s 760 mmHg 75%
    08:00 +18°C° 0 mm 4 m/s 760 mmHg 73%
    09:00 +19°C° 0 mm 4 m/s 760 mmHg 68%
    10:00 +20°C° 0 mm 5 m/s 760 mmHg 63%
    11:00 +21°C° 0 mm 5 m/s 760 mmHg 58%
    12:00 +21°C° 0 mm 5 m/s 760 mmHg 59%
    13:00 +21°C° 0 mm 5 m/s 760 mmHg 59%
    14:00 +21°C° 0 mm 5 m/s 760 mmHg 59%
    15:00 +21°C° 0 mm 5 m/s 760 mmHg 60%
    16:00 +21°C° 0 mm 5 m/s 760 mmHg 62%
    17:00 +21°C° 0 mm 5 m/s 760 mmHg 63%
    18:00 +20°C° 0 mm 4 m/s 761 mmHg 68%
    19:00 +19°C° 0 mm 4 m/s 761 mmHg 74%
    20:00 +18°C° 0 mm 4 m/s 761 mmHg 79%
    21:00 +17°C° 0 mm 3 m/s 761 mmHg 82%
    22:00 +17°C° 0 mm 3 m/s 762 mmHg 85%
    23:00 +16°C° 0 mm 2 m/s 762 mmHg 88%

    Poimâine, 23 Februarie, Joi

    Timp Temperatura Precipitaţii Vânt Presiune Umiditate
    00:00 +16°C° 0 mm 2 m/s 762 mmHg 89%
    01:00 +16°C° 0 mm 2 m/s 761 mmHg 90%
    02:00 +15°C° 0 mm 2 m/s 761 mmHg 92%
    03:00 +15°C° 0 mm 2 m/s 761 mmHg 92%
    04:00 +15°C° 0 mm 2 m/s 762 mmHg 92%
    05:00 +15°C° 0 mm 2 m/s 762 mmHg 92%
    06:00 +16°C° 0 mm 2 m/s 762 mmHg 86%
    07:00 +19°C° 0 mm 1 m/s 762 mmHg 81%
    08:00 +20°C° 0 mm 1 m/s 763 mmHg 76%
    09:00 +22°C° 0 mm 1 m/s 763 mmHg 68%
    10:00 +23°C° 0 mm 1 m/s 763 mmHg 61%
    11:00 +25°C° 0 mm 1 m/s 763 mmHg 54%
    12:00 +26°C° 0 mm 2 m/s 763 mmHg 52%
    13:00 +26°C° 0 mm 2 m/s 762 mmHg 50%
    14:00 +27°C° 0 mm 3 m/s 762 mmHg 49%
    15:00 +26°C° 0 mm 4 m/s 762 mmHg 54%
    16:00 +23°C° 0 mm 4 m/s 762 mmHg 58%
    17:00 +22°C° 0 mm 5 m/s 762 mmHg 63%
    18:00 +21°C° 0 mm 5 m/s 762 mmHg 68%
    19:00 +20°C° 0 mm 4 m/s 763 mmHg 73%
    20:00 +18°C° 0 mm 4 m/s 764 mmHg 78%
    21:00 +19°C° 0 mm 5 m/s 764 mmHg 79%
    22:00 +19°C° 0 mm 5 m/s 764 mmHg 79%
    23:00 +19°C° 0 mm 5 m/s 764 mmHg 80%

    24 Februarie, Vineri

    Timp Temperatura Precipitaţii Vânt Presiune Umiditate
    00:00 +19°C° 0 mm 5 m/s 764 mmHg 80%
    01:00 +19°C° 0 mm 5 m/s 764 mmHg 80%
    02:00 +19°C° 0 mm 5 m/s 764 mmHg 80%
    03:00 +19°C° 0 mm 5 m/s 764 mmHg 80%
    04:00 +19°C° 0 mm 5 m/s 764 mmHg 81%
    05:00 +19°C° 0 mm 5 m/s 764 mmHg 82%
    06:00 +20°C° 0 mm 6 m/s 764 mmHg 79%
    07:00 +20°C° 0 mm 6 m/s 764 mmHg 77%
    08:00 +21°C° 0 mm 6 m/s 764 mmHg 75%
    09:00 +23°C° 0 mm 6 m/s 764 mmHg 66%
    10:00 +26°C° 0 mm 6 m/s 764 mmHg 57%
    11:00 +28°C° 0 mm 6 m/s 764 mmHg 48%
    12:00 +30°C° 0 mm 6 m/s 763 mmHg 43%
    13:00 +32°C° 0 mm 6 m/s 762 mmHg 38%
    14:00 +34°C° 0 mm 6 m/s 762 mmHg 33%
    15:00 +33°C° 0 mm 6 m/s 762 mmHg 36%
    16:00 +32°C° 0 mm 6 m/s 761 mmHg 39%
    17:00 +30°C° 0 mm 7 m/s 761 mmHg 42%
    18:00 +29°C° 0 mm 7 m/s 761 mmHg 49%
    19:00 +27°C° 0 mm 7 m/s 762 mmHg 55%
    20:00 +24°C° 0 mm 7 m/s 762 mmHg 62%
    21:00 +24°C° 0 mm 7 m/s 762 mmHg 62%
    22:00 +23°C° 0 mm 7 m/s 762 mmHg 63%
    23:00 +23°C° 0 mm 7 m/s 762 mmHg 63%

    25 Februarie, Sâmbătă

    Timp Temperatura Precipitaţii Vânt Presiune Umiditate
    00:00 +23°C° 0 mm 7 m/s 762 mmHg 63%
    01:00 +23°C° 0 mm 6 m/s 761 mmHg 63%
    02:00 +22°C° 0 mm 6 m/s 761 mmHg 62%
    03:00 +22°C° 0 mm 6 m/s 761 mmHg 61%
    04:00 +22°C° 0 mm 5 m/s 761 mmHg 60%
    05:00 +22°C° 0 mm 5 m/s 761 mmHg 59%
    06:00 +23°C° 0 mm 5 m/s 761 mmHg 53%
    07:00 +25°C° 0 mm 5 m/s 761 mmHg 47%
    08:00 +26°C° 0 mm 5 m/s 762 mmHg 42%
    09:00 +29°C° 0 mm 5 m/s 761 mmHg 36%
    10:00 +32°C° 0 mm 5 m/s 761 mmHg 30%
    11:00 +34°C° 0 mm 5 m/s 761 mmHg 25%
    12:00 +35°C° 0 mm 4 m/s 760 mmHg 23%
    13:00 +36°C° 0 mm 4 m/s 760 mmHg 22%
    14:00 +37°C° 0 mm 4 m/s 759 mmHg 20%
    15:00 +36°C° 0 mm 4 m/s 759 mmHg 23%
    16:00 +35°C° 0 mm 5 m/s 759 mmHg 25%
    17:00 +35°C° 0 mm 5 m/s 758 mmHg 28%
    18:00 +32°C° 0 mm 5 m/s 758 mmHg 34%
    19:00 +29°C° 0 mm 6 m/s 759 mmHg 40%
    20:00 +27°C° 0 mm 6 m/s 759 mmHg 46%
    21:00 +27°C° 0 mm 6 m/s 758 mmHg 47%
    22:00 +26°C° 0 mm 5 m/s 758 mmHg 48%
    23:00 +26°C° 0 mm 5 m/s 758 mmHg 49%

    26 Februarie, Duminică

    Timp Temperatura Precipitaţii Vânt Presiune Umiditate
    00:00 +25°C° 0 mm 5 m/s 757 mmHg 48%
    01:00 +25°C° 0 mm 5 m/s 757 mmHg 47%
    02:00 +25°C° 0 mm 5 m/s 756 mmHg 45%
    03:00 +25°C° 0 mm 5 m/s 756 mmHg 43%
    04:00 +25°C° 0 mm 5 m/s 756 mmHg 40%
    05:00 +25°C° 0 mm 4 m/s 756 mmHg 37%
    06:00 +26°C° 0 mm 5 m/s 756 mmHg 35%
    07:00 +27°C° 0 mm 5 m/s 756 mmHg 33%
    08:00 +29°C° 0 mm 5 m/s 756 mmHg 31%
    09:00 +32°C° 0 mm 4 m/s 756 mmHg 27%
    10:00 +35°C° 0 mm 4 m/s 755 mmHg 23%
    11:00 +37°C° 0 mm 4 m/s 755 mmHg 19%
    12:00 +38°C° 0 mm 4 m/s 754 mmHg 19%
    13:00 +40°C° 0 mm 4 m/s 754 mmHg 18%
    14:00 +40°C° 0 mm 4 m/s 753 mmHg 18%
    15:00 +37°C° 0 mm 4 m/s 753 mmHg 26%
    16:00 +34°C° 0 mm 4 m/s 753 mmHg 33%
    17:00 +30°C° 0 mm 5 m/s 753 mmHg 41%
    18:00 +28°C° 0 mm 4 m/s 753 mmHg 50%
    19:00 +26°C° 0 mm 4 m/s 754 mmHg 60%
    20:00 +22°C° 0 mm 4 m/s 754 mmHg 69%
    21:00 +22°C° 0 mm 4 m/s 754 mmHg 75%
    22:00 +21°C° 0 mm 4 m/s 754 mmHg 80%
    23:00 +20°C° 0 mm 4 m/s 754 mmHg 85%
    Arată mai mult